Time,TemperatureF,DewpointF,PressureIn,WindDirection,WindDirectionDegrees,WindSpeedMPH,WindSpeedGustMPH,Humidity,HourlyPrecipIn,Conditions,Clouds,dailyrainin,SoftwareType,DateUTC
2013-08-23 00:01:00,74.7,69.0,30.11,SSW,203,0.0,0.0,82,0.01,,,0.00,WUHU216HW,2013-08-23 04:01:00,
2013-08-23 00:02:00,74.7,69.0,30.11,SSW,203,0.0,0.0,82,0.01,,,0.00,WUHU216HW,2013-08-23 04:02:00,
2013-08-23 00:07:00,74.7,69.2,30.11,SSW,203,0.0,0.0,83,0.01,,,0.00,WUHU216HW,2013-08-23 04:07:00,
2013-08-23 00:12:00,74.5,69.0,30.11,SSW,203,0.0,0.0,83,0.01,,,0.00,WUHU216HW,2013-08-23 04:12:00,
2013-08-23 00:17:00,74.5,69.0,30.11,SSW,203,0.0,0.0,83,0.01,,,0.00,WUHU216HW,2013-08-23 04:17:00,
2013-08-23 00:22:00,74.5,69.0,30.10,SSW,203,0.0,0.0,83,0.01,,,0.00,WUHU216HW,2013-08-23 04:22:00,
2013-08-23 00:27:00,74.3,68.9,30.10,SSW,203,0.0,0.0,83,0.01,,,0.00,WUHU216HW,2013-08-23 04:27:00,
2013-08-23 00:32:00,74.2,69.0,30.10,NW,315,0.4,0.4,84,0.01,,,0.00,WUHU216HW,2013-08-23 04:32:00,
2013-08-23 00:37:00,74.0,68.9,30.10,WSW,248,0.0,0.4,84,0.01,,,0.00,WUHU216HW,2013-08-23 04:37:00,
2013-08-23 00:42:00,74.2,69.0,30.10,South,180,0.0,0.4,84,0.01,,,0.00,WUHU216HW,2013-08-23 04:42:00,
2013-08-23 00:47:00,74.2,69.0,30.10,South,180,0.0,0.4,84,0.01,,,0.00,WUHU216HW,2013-08-23 04:47:00,
2013-08-23 00:52:00,74.2,69.0,30.10,NW,315,0.0,0.2,84,0.00,,,0.00,WUHU216HW,2013-08-23 04:52:00,
2013-08-23 00:57:00,74.2,69.0,30.09,NNE,23,0.0,0.2,84,0.00,,,0.00,WUHU216HW,2013-08-23 04:57:00,
2013-08-23 01:02:00,74.2,69.0,30.09,SSE,158,0.0,0.0,84,0.00,,,0.00,WUHU216HW,2013-08-23 05:02:00,
2013-08-23 01:07:00,74.2,69.0,30.10,SSE,158,0.0,0.0,84,0.00,,,0.00,WUHU216HW,2013-08-23 05:07:00,
2013-08-23 01:12:00,74.0,68.9,30.09,SSW,203,0.0,0.0,84,0.00,,,0.00,WUHU216HW,2013-08-23 05:12:00,
2013-08-23 01:17:00,73.8,68.7,30.09,SSW,203,0.0,0.4,84,0.00,,,0.00,WUHU216HW,2013-08-23 05:17:00,
2013-08-23 01:22:00,73.8,69.0,30.10,SSW,203,0.0,0.4,85,0.00,,,0.00,WUHU216HW,2013-08-23 05:22:00,
2013-08-23 01:27:00,73.8,69.0,30.09,West,270,0.0,0.4,85,0.00,,,0.00,WUHU216HW,2013-08-23 05:27:00,
2013-08-23 01:32:00,73.8,68.7,30.10,South,180,0.2,0.9,84,0.00,,,0.00,WUHU216HW,2013-08-23 05:32:00,
2013-08-23 01:37:00,73.8,68.7,30.10,SSW,203,0.4,0.9,84,0.00,,,0.00,WUHU216HW,2013-08-23 05:37:00,
2013-08-23 01:42:00,73.8,68.7,30.10,SSE,158,0.4,0.4,84,0.00,,,0.00,WUHU216HW,2013-08-23 05:42:00,
2013-08-23 01:47:00,73.8,69.0,30.10,SE,135,0.0,0.4,85,0.00,,,0.00,WUHU216HW,2013-08-23 05:47:00,
2013-08-23 01:52:00,73.8,69.0,30.10,South,180,0.0,0.4,85,0.00,,,0.00,WUHU216HW,2013-08-23 05:52:00,
2013-08-23 01:57:00,73.8,69.0,30.10,SW,225,0.0,0.2,85,0.00,,,0.00,WUHU216HW,2013-08-23 05:57:00,
2013-08-23 02:02:00,73.6,68.9,30.10,SE,135,0.7,0.7,85,0.00,,,0.00,WUHU216HW,2013-08-23 06:02:00,
2013-08-23 02:07:00,73.6,68.9,30.10,SE,135,0.0,0.7,85,0.00,,,0.00,WUHU216HW,2013-08-23 06:07:00,
2013-08-23 02:12:00,73.6,68.9,30.10,SE,135,0.0,0.2,85,0.00,,,0.00,WUHU216HW,2013-08-23 06:12:00,
2013-08-23 02:17:00,73.6,68.9,30.10,SE,135,0.0,0.0,85,0.00,,,0.00,WUHU216HW,2013-08-23 06:17:00,
2013-08-23 02:22:00,73.4,68.7,30.10,SE,135,0.0,0.2,85,0.00,,,0.00,WUHU216HW,2013-08-23 06:22:00,
2013-08-23 02:27:00,73.4,68.7,30.10,SE,135,0.0,0.2,85,0.00,,,0.00,WUHU216HW,2013-08-23 06:27:00,
2013-08-23 02:32:00,73.4,68.7,30.10,SSW,203,0.0,0.4,85,0.00,,,0.00,WUHU216HW,2013-08-23 06:32:00,
2013-08-23 02:37:00,73.3,68.5,30.10,South,180,0.0,0.4,85,0.00,,,0.00,WUHU216HW,2013-08-23 06:37:00,
2013-08-23 02:42:00,73.1,68.3,30.09,ESE,113,0.0,0.7,85,0.00,,,0.00,WUHU216HW,2013-08-23 06:42:00,
2013-08-23 02:47:00,73.1,68.3,30.09,ESE,113,0.0,0.7,85,0.00,,,0.00,WUHU216HW,2013-08-23 06:47:00,
2013-08-23 02:52:00,73.1,68.3,30.09,SSW,203,0.0,0.0,85,0.00,,,0.00,WUHU216HW,2013-08-23 06:52:00,
2013-08-23 02:57:00,73.1,68.3,30.10,SSW,203,0.0,0.0,85,0.00,,,0.00,WUHU216HW,2013-08-23 06:57:00,
2013-08-23 03:02:00,72.9,68.1,30.09,SE,135,0.0,0.0,85,0.00,,,0.00,WUHU216HW,2013-08-23 07:02:00,
2013-08-23 03:07:00,72.9,68.5,30.09,SSW,203,0.0,0.4,86,0.00,,,0.00,WUHU216HW,2013-08-23 07:07:00,
2013-08-23 03:12:00,72.9,68.1,30.09,SSW,203,0.0,0.4,85,0.00,,,0.00,WUHU216HW,2013-08-23 07:12:00,
2013-08-23 03:17:00,72.9,68.1,30.09,SSW,203,0.0,0.4,85,0.00,,,0.00,WUHU216HW,2013-08-23 07:17:00,
2013-08-23 03:22:00,72.9,68.1,30.09,SSW,203,0.0,0.0,85,0.00,,,0.00,WUHU216HW,2013-08-23 07:22:00,
2013-08-23 03:27:00,72.7,68.0,30.09,NNW,338,0.0,0.2,85,0.00,,,0.00,WUHU216HW,2013-08-23 07:27:00,
2013-08-23 03:32:00,72.7,68.0,30.09,SW,225,0.0,0.2,85,0.00,,,0.00,WUHU216HW,2013-08-23 07:32:00,
2013-08-23 03:37:00,72.7,68.0,30.08,North,0,0.4,0.4,85,0.00,,,0.00,WUHU216HW,2013-08-23 07:37:00,
2013-08-23 03:42:00,72.7,68.0,30.08,North,0,0.0,0.4,85,0.00,,,0.00,WUHU216HW,2013-08-23 07:42:00,
2013-08-23 03:47:00,72.7,68.3,30.08,SW,225,0.0,0.7,86,0.00,,,0.00,WUHU216HW,2013-08-23 07:47:00,
2013-08-23 03:52:00,72.7,68.3,30.08,NNW,338,0.0,1.3,86,0.00,,,0.00,WUHU216HW,2013-08-23 07:52:00,
2013-08-23 03:57:00,72.7,68.3,30.08,NW,315,0.4,1.3,86,0.00,,,0.00,WUHU216HW,2013-08-23 07:57:00,
2013-08-23 04:02:00,72.7,68.3,30.07,West,270,0.0,0.9,86,0.00,,,0.00,WUHU216HW,2013-08-23 08:02:00,
2013-08-23 04:07:00,72.7,68.3,30.07,SSW,203,0.0,0.9,86,0.00,,,0.00,WUHU216HW,2013-08-23 08:07:00,
2013-08-23 04:12:00,72.7,68.3,30.07,SW,225,0.0,0.0,86,0.00,,,0.00,WUHU216HW,2013-08-23 08:12:00,
2013-08-23 04:17:00,72.7,68.3,30.07,SSW,203,0.0,0.0,86,0.00,,,0.00,WUHU216HW,2013-08-23 08:17:00,
2013-08-23 04:22:00,72.7,68.3,30.07,South,180,0.0,0.4,86,0.00,,,0.00,WUHU216HW,2013-08-23 08:22:00,
2013-08-23 04:27:00,72.7,68.3,30.07,SSE,158,0.0,0.4,86,0.00,,,0.00,WUHU216HW,2013-08-23 08:27:00,
2013-08-23 04:32:00,72.5,68.1,30.07,SSW,203,0.2,1.1,86,0.00,,,0.00,WUHU216HW,2013-08-23 08:32:00,
2013-08-23 04:37:00,72.5,68.1,30.07,SSW,203,1.1,1.1,86,0.00,,,0.00,WUHU216HW,2013-08-23 08:37:00,
2013-08-23 04:42:00,72.5,68.1,30.07,SSW,203,0.4,1.1,86,0.00,,,0.00,WUHU216HW,2013-08-23 08:42:00,
2013-08-23 04:47:00,72.5,68.1,30.07,SW,225,0.4,0.4,86,0.00,,,0.00,WUHU216HW,2013-08-23 08:47:00,
2013-08-23 04:52:00,72.4,68.0,30.07,South,180,1.3,2.7,86,0.00,,,0.00,WUHU216HW,2013-08-23 08:52:00,
2013-08-23 04:57:00,72.4,68.0,30.07,SSW,203,0.4,2.7,86,0.00,,,0.00,WUHU216HW,2013-08-23 08:57:00,
2013-08-23 05:02:00,72.4,68.0,30.07,NNW,338,0.4,2.0,86,0.00,,,0.00,WUHU216HW,2013-08-23 09:02:00,
2013-08-23 05:07:00,72.2,67.8,30.07,SSW,203,0.4,2.0,86,0.00,,,0.00,WUHU216HW,2013-08-23 09:07:00,
2013-08-23 05:12:00,72.2,67.8,30.07,SE,135,0.0,1.6,86,0.00,,,0.00,WUHU216HW,2013-08-23 09:12:00,
2013-08-23 05:17:00,72.0,68.0,30.07,West,270,2.2,2.2,87,0.00,,,0.00,WUHU216HW,2013-08-23 09:17:00,
2013-08-23 05:22:00,72.0,68.0,30.07,SSW,203,0.2,2.2,87,0.00,,,0.00,WUHU216HW,2013-08-23 09:22:00,
2013-08-23 05:27:00,72.0,68.0,30.07,West,270,0.2,1.3,87,0.00,,,0.00,WUHU216HW,2013-08-23 09:27:00,
2013-08-23 05:32:00,72.0,68.0,30.07,SSW,203,1.6,1.8,87,0.00,,,0.00,WUHU216HW,2013-08-23 09:32:00,
2013-08-23 05:37:00,72.0,68.0,30.07,SW,225,1.1,2.7,87,0.00,,,0.00,WUHU216HW,2013-08-23 09:37:00,
2013-08-23 05:42:00,71.8,67.8,30.07,NW,315,0.0,2.7,87,0.00,,,0.00,WUHU216HW,2013-08-23 09:42:00,
2013-08-23 05:47:00,72.0,68.0,30.07,West,270,1.8,2.2,87,0.00,,,0.00,WUHU216HW,2013-08-23 09:47:00,
2013-08-23 05:52:00,71.8,67.8,30.07,SSE,158,0.9,2.2,87,0.00,,,0.00,WUHU216HW,2013-08-23 09:52:00,
2013-08-23 05:57:00,71.8,68.0,30.07,NNW,338,0.9,1.8,88,0.00,,,0.00,WUHU216HW,2013-08-23 09:57:00,
2013-08-23 06:02:00,71.8,68.0,30.07,SSE,158,1.1,2.7,88,0.00,,,0.00,WUHU216HW,2013-08-23 10:02:00,
2013-08-23 06:07:00,71.8,68.0,30.07,SSE,158,0.4,2.7,88,0.00,,,0.00,WUHU216HW,2013-08-23 10:07:00,
2013-08-23 06:12:00,71.8,68.0,30.08,SSW,203,0.4,1.1,88,0.00,,,0.00,WUHU216HW,2013-08-23 10:12:00,
2013-08-23 06:17:00,71.8,68.0,30.07,South,180,0.4,1.1,88,0.00,,,0.00,WUHU216HW,2013-08-23 10:17:00,
2013-08-23 06:22:00,71.6,67.9,30.07,SSE,158,0.4,0.9,88,0.00,,,0.00,WUHU216HW,2013-08-23 10:22:00,
2013-08-23 06:27:00,71.6,67.9,30.07,South,180,0.0,0.9,88,0.00,,,0.00,WUHU216HW,2013-08-23 10:27:00,
2013-08-23 06:32:00,71.6,67.9,30.08,SSW,203,0.4,1.8,88,0.00,,,0.00,WUHU216HW,2013-08-23 10:32:00,
2013-08-23 06:37:00,71.6,67.9,30.07,SSW,203,0.4,1.8,88,0.00,,,0.00,WUHU216HW,2013-08-23 10:37:00,
2013-08-23 06:42:00,71.6,67.6,30.08,SSW,203,1.6,1.6,87,0.00,,,0.00,WUHU216HW,2013-08-23 10:42:00,
2013-08-23 06:47:00,71.6,67.9,30.08,SE,135,0.4,1.6,88,0.00,,,0.00,WUHU216HW,2013-08-23 10:47:00,
2013-08-23 06:52:00,71.6,67.6,30.08,SSW,203,0.4,3.1,87,0.00,,,0.00,WUHU216HW,2013-08-23 10:52:00,
2013-08-23 06:57:00,71.8,67.8,30.08,SSE,158,0.9,3.1,87,0.00,,,0.00,WUHU216HW,2013-08-23 10:57:00,
2013-08-23 07:02:00,71.6,67.6,30.09,South,180,0.7,3.4,87,0.00,,,0.00,WUHU216HW,2013-08-23 11:02:00,
2013-08-23 07:07:00,71.6,67.9,30.09,WSW,248,0.7,3.4,88,0.00,,,0.00,WUHU216HW,2013-08-23 11:07:00,
2013-08-23 07:12:00,71.6,67.9,30.09,WNW,293,0.4,1.1,88,0.00,,,0.00,WUHU216HW,2013-08-23 11:12:00,
2013-08-23 07:17:00,71.8,67.8,30.09,South,180,1.1,1.6,87,0.00,,,0.00,WUHU216HW,2013-08-23 11:17:00,
2013-08-23 07:22:00,72.0,68.0,30.09,South,180,0.4,1.6,87,0.00,,,0.00,WUHU216HW,2013-08-23 11:22:00,
2013-08-23 07:27:00,72.0,68.0,30.09,SSW,203,1.1,1.1,87,0.00,,,0.00,WUHU216HW,2013-08-23 11:27:00,
2013-08-23 07:32:00,72.2,68.1,30.09,SSW,203,0.9,1.1,87,0.00,,,0.00,WUHU216HW,2013-08-23 11:32:00,
2013-08-23 07:37:00,72.4,68.3,30.09,SW,225,0.4,0.9,87,0.00,,,0.00,WUHU216HW,2013-08-23 11:37:00,
2013-08-23 07:42:00,72.5,68.5,30.09,NNE,23,0.2,1.3,87,0.00,,,0.00,WUHU216HW,2013-08-23 11:42:00,
2013-08-23 07:47:00,72.9,68.9,30.09,NW,315,0.4,1.3,87,0.00,,,0.00,WUHU216HW,2013-08-23 11:47:00,
2013-08-23 07:52:00,73.1,69.0,30.10,WNW,293,0.7,1.1,87,0.00,,,0.00,WUHU216HW,2013-08-23 11:52:00,
2013-08-23 07:57:00,73.4,69.4,30.10,West,270,0.0,1.3,87,0.00,,,0.00,WUHU216HW,2013-08-23 11:57:00,
2013-08-23 08:02:00,73.8,69.8,30.10,SSW,203,2.2,3.4,87,0.00,,,0.00,WUHU216HW,2013-08-23 12:02:00,
2013-08-23 08:07:00,74.0,69.6,30.10,ENE,68,0.2,3.4,86,0.00,,,0.00,WUHU216HW,2013-08-23 12:07:00,
2013-08-23 08:12:00,74.3,69.9,30.10,South,180,0.4,2.2,86,0.00,,,0.00,WUHU216HW,2013-08-23 12:12:00,
2013-08-23 08:17:00,74.5,69.8,30.10,WSW,248,2.9,2.9,85,0.00,,,0.00,WUHU216HW,2013-08-23 12:17:00,
2013-08-23 08:22:00,74.7,69.9,30.11,NNW,338,0.9,2.9,85,0.00,,,0.00,WUHU216HW,2013-08-23 12:22:00,
2013-08-23 08:27:00,75.1,70.3,30.10,NW,315,4.0,5.8,85,0.00,,,0.00,WUHU216HW,2013-08-23 12:27:00,
2013-08-23 08:32:00,75.2,70.1,30.10,SW,225,2.5,5.8,84,0.00,,,0.00,WUHU216HW,2013-08-23 12:32:00,
2013-08-23 08:37:00,75.8,70.7,30.11,South,180,0.2,4.0,84,0.00,,,0.00,WUHU216HW,2013-08-23 12:37:00,
2013-08-23 08:42:00,76.3,70.8,30.10,South,180,0.7,2.5,83,0.00,,,0.00,WUHU216HW,2013-08-23 12:42:00,
2013-08-23 08:47:00,76.9,71.3,30.11,SSE,158,1.8,3.1,83,0.00,,,0.00,WUHU216HW,2013-08-23 12:47:00,
2013-08-23 08:52:00,77.4,71.5,30.11,North,0,0.7,3.1,82,0.00,,,0.00,WUHU216HW,2013-08-23 12:52:00,
2013-08-23 08:57:00,77.9,71.6,30.11,SSW,203,1.1,2.9,81,0.00,,,0.00,WUHU216HW,2013-08-23 12:57:00,
2013-08-23 09:02:00,78.3,71.3,30.11,WNW,293,2.7,4.7,79,0.00,,,0.00,WUHU216HW,2013-08-23 13:02:00,
2013-08-23 09:07:00,78.8,71.8,30.10,SW,225,2.0,4.7,79,0.00,,,0.00,WUHU216HW,2013-08-23 13:07:00,
2013-08-23 09:12:00,79.2,71.7,30.11,South,180,0.7,2.7,78,0.00,,,0.00,WUHU216HW,2013-08-23 13:12:00,
2013-08-23 09:17:00,79.7,71.5,30.10,West,270,2.5,3.4,76,0.00,,,0.00,WUHU216HW,2013-08-23 13:17:00,
2013-08-23 09:22:00,80.1,72.3,30.11,NW,315,0.7,3.4,77,0.00,,,0.00,WUHU216HW,2013-08-23 13:22:00,
2013-08-23 09:27:00,80.5,72.2,30.10,NW,315,1.1,2.5,76,0.00,,,0.00,WUHU216HW,2013-08-23 13:27:00,
2013-08-23 09:32:00,80.8,71.7,30.10,NNW,338,0.4,4.7,74,0.00,,,0.00,WUHU216HW,2013-08-23 13:32:00,
2013-08-23 09:37:00,81.2,72.6,30.11,North,0,0.9,4.7,75,0.00,,,0.00,WUHU216HW,2013-08-23 13:37:00,
2013-08-23 09:42:00,81.7,72.2,30.11,SW,225,2.5,2.7,73,0.00,,,0.00,WUHU216HW,2013-08-23 13:42:00,
2013-08-23 09:47:00,82.1,73.0,30.11,SSW,203,1.6,2.5,74,0.00,,,0.00,WUHU216HW,2013-08-23 13:47:00,
2013-08-23 09:52:00,82.8,72.5,30.11,WSW,248,0.9,3.4,71,0.00,,,0.00,WUHU216HW,2013-08-23 13:52:00,
2013-08-23 09:57:00,83.7,72.9,30.11,SSW,203,1.8,3.4,70,0.00,,,0.00,WUHU216HW,2013-08-23 13:57:00,
2013-08-23 10:02:00,83.9,73.1,30.11,SSW,203,1.8,3.1,70,0.00,,,0.00,WUHU216HW,2013-08-23 14:02:00,
2013-08-23 10:07:00,83.9,72.6,30.11,SSW,203,1.3,3.1,69,0.00,,,0.00,WUHU216HW,2013-08-23 14:07:00,
2013-08-23 10:12:00,84.6,73.8,30.11,WNW,293,2.5,3.1,70,0.00,,,0.00,WUHU216HW,2013-08-23 14:12:00,
2013-08-23 10:17:00,85.3,74.1,30.11,SW,225,2.2,2.5,69,0.00,,,0.00,WUHU216HW,2013-08-23 14:17:00,
2013-08-23 10:22:00,85.5,73.4,30.11,NNW,338,3.4,6.3,67,0.00,,,0.00,WUHU216HW,2013-08-23 14:22:00,
2013-08-23 10:27:00,85.0,72.8,30.11,WNW,293,0.9,6.3,67,0.00,,,0.00,WUHU216HW,2013-08-23 14:27:00,
2013-08-23 10:32:00,85.1,73.0,30.11,South,180,2.0,3.8,67,0.00,,,0.00,WUHU216HW,2013-08-23 14:32:00,
2013-08-23 10:37:00,85.3,72.7,30.11,SSE,158,1.8,8.3,66,0.00,,,0.00,WUHU216HW,2013-08-23 14:37:00,
2013-08-23 10:42:00,85.9,73.2,30.11,SE,135,2.5,8.3,66,0.00,,,0.00,WUHU216HW,2013-08-23 14:42:00,
2013-08-23 10:47:00,86.0,73.4,30.11,SSW,203,1.8,4.3,66,0.00,,,0.00,WUHU216HW,2013-08-23 14:47:00,
2013-08-23 10:52:00,86.4,72.8,30.11,NW,315,3.1,4.9,64,0.00,,,0.00,WUHU216HW,2013-08-23 14:52:00,
2013-08-23 10:57:00,86.4,73.3,30.11,NW,315,4.7,4.9,65,0.00,,,0.00,WUHU216HW,2013-08-23 14:57:00,
2013-08-23 11:02:00,86.9,74.3,30.11,SSE,158,1.8,4.7,66,0.00,,,0.00,WUHU216HW,2013-08-23 15:02:00,
2013-08-23 11:07:00,87.5,74.3,30.12,SSW,203,1.6,4.7,65,0.00,,,0.00,WUHU216HW,2013-08-23 15:07:00,
2013-08-23 11:12:00,88.4,75.2,30.11,NW,315,4.0,4.0,65,0.00,,,0.00,WUHU216HW,2013-08-23 15:12:00,
2013-08-23 11:17:00,89.1,74.9,30.11,WSW,248,1.8,4.7,63,0.01,,,0.01,WUHU216HW,2013-08-23 15:17:00,
2013-08-23 11:22:00,89.1,74.9,30.11,NW,315,1.6,4.9,63,0.01,,,0.01,WUHU216HW,2013-08-23 15:22:00,
2013-08-23 11:27:00,89.8,74.2,30.11,West,270,2.5,4.9,60,0.01,,,0.01,WUHU216HW,2013-08-23 15:27:00,
2013-08-23 11:32:00,90.4,75.1,30.10,NW,315,1.6,4.0,61,0.01,,,0.01,WUHU216HW,2013-08-23 15:32:00,
2013-08-23 11:37:00,90.5,74.8,30.10,NNW,338,2.2,3.4,60,0.01,,,0.01,WUHU216HW,2013-08-23 15:37:00,
2013-08-23 11:42:00,90.0,74.4,30.11,North,0,4.5,4.5,60,0.01,,,0.01,WUHU216HW,2013-08-23 15:42:00,
2013-08-23 11:47:00,90.5,75.7,30.10,NE,45,1.1,4.5,62,0.01,,,0.01,WUHU216HW,2013-08-23 15:47:00,
2013-08-23 11:52:00,90.9,76.1,30.10,SE,135,0.4,5.1,62,0.01,,,0.01,WUHU216HW,2013-08-23 15:52:00,
2013-08-23 11:57:00,90.9,74.1,30.11,NNW,338,1.3,5.1,58,0.01,,,0.01,WUHU216HW,2013-08-23 15:57:00,
2013-08-23 12:02:00,90.4,75.6,30.10,NNW,338,2.0,4.5,62,0.01,,,0.01,WUHU216HW,2013-08-23 16:02:00,
2013-08-23 12:07:00,90.9,75.6,30.10,West,270,1.8,4.0,61,0.01,,,0.01,WUHU216HW,2013-08-23 16:07:00,
2013-08-23 12:12:00,90.9,75.6,30.10,West,270,2.2,2.9,61,0.01,,,0.01,WUHU216HW,2013-08-23 16:12:00,
2013-08-23 12:17:00,91.1,75.8,30.10,WNW,293,1.1,2.9,61,0.00,,,0.01,WUHU216HW,2013-08-23 16:17:00,
2013-08-23 12:22:00,91.4,75.6,30.09,ENE,68,2.0,3.6,60,0.00,,,0.01,WUHU216HW,2013-08-23 16:22:00,
2013-08-23 12:27:00,91.1,75.2,30.09,North,0,0.7,4.7,60,0.00,,,0.01,WUHU216HW,2013-08-23 16:27:00,
2013-08-23 12:32:00,91.1,75.8,30.09,SSW,203,1.1,6.3,61,0.00,,,0.01,WUHU216HW,2013-08-23 16:32:00,
2013-08-23 12:37:00,91.6,75.8,30.09,ESE,113,1.1,6.3,60,0.00,,,0.01,WUHU216HW,2013-08-23 16:37:00,
2013-08-23 12:42:00,91.6,74.7,30.09,NW,315,1.3,4.7,58,0.00,,,0.01,WUHU216HW,2013-08-23 16:42:00,
2013-08-23 12:47:00,91.6,76.2,30.09,North,0,2.7,4.7,61,0.00,,,0.01,WUHU216HW,2013-08-23 16:47:00,
2013-08-23 12:52:00,91.6,74.7,30.08,SSW,203,1.1,4.3,58,0.00,,,0.01,WUHU216HW,2013-08-23 16:52:00,
2013-08-23 12:57:00,92.0,75.6,30.09,NW,315,2.5,4.3,59,0.00,,,0.01,WUHU216HW,2013-08-23 16:57:00,
2013-08-23 13:02:00,92.3,75.4,30.08,WNW,293,0.7,3.6,58,0.00,,,0.01,WUHU216HW,2013-08-23 17:02:00,
2013-08-23 13:07:00,92.7,75.8,30.08,NW,315,2.5,3.4,58,0.00,,,0.01,WUHU216HW,2013-08-23 17:07:00,
2013-08-23 13:12:00,92.7,75.8,30.08,NW,315,1.6,3.4,58,0.00,,,0.01,WUHU216HW,2013-08-23 17:12:00,
2013-08-23 13:17:00,93.2,75.7,30.07,WNW,293,0.4,3.4,57,0.00,,,0.01,WUHU216HW,2013-08-23 17:17:00,
2013-08-23 13:22:00,93.1,75.5,30.07,NW,315,2.2,3.1,57,0.00,,,0.01,WUHU216HW,2013-08-23 17:22:00,
2013-08-23 13:27:00,93.4,74.8,30.07,NW,315,2.2,3.1,55,0.00,,,0.01,WUHU216HW,2013-08-23 17:27:00,
2013-08-23 13:32:00,93.2,75.2,30.07,SW,225,1.8,2.9,56,0.00,,,0.01,WUHU216HW,2013-08-23 17:32:00,
2013-08-23 13:37:00,93.6,74.4,30.07,WNW,293,4.0,4.0,54,0.00,,,0.01,WUHU216HW,2013-08-23 17:37:00,
2013-08-23 13:42:00,93.2,75.2,30.07,WSW,248,0.4,5.4,56,0.00,,,0.01,WUHU216HW,2013-08-23 17:42:00,
2013-08-23 13:47:00,93.2,74.6,30.07,NNE,23,1.8,5.4,55,0.00,,,0.01,WUHU216HW,2013-08-23 17:47:00,
2013-08-23 13:52:00,93.1,75.0,30.06,ENE,68,0.7,2.9,56,0.00,,,0.01,WUHU216HW,2013-08-23 17:52:00,
2013-08-23 13:57:00,93.8,75.2,30.06,North,0,3.6,5.8,55,0.00,,,0.01,WUHU216HW,2013-08-23 17:57:00,
2013-08-23 14:02:00,94.3,75.6,30.05,South,180,1.1,5.8,55,0.00,,,0.01,WUHU216HW,2013-08-23 18:02:00,
2013-08-23 14:07:00,94.9,75.6,30.05,SW,225,0.9,4.3,54,0.00,,,0.01,WUHU216HW,2013-08-23 18:07:00,
2013-08-23 14:12:00,95.6,75.2,30.05,SE,135,1.8,3.8,52,0.00,,,0.01,WUHU216HW,2013-08-23 18:12:00,
2013-08-23 14:17:00,95.4,75.6,30.05,West,270,0.0,3.8,53,0.00,,,0.01,WUHU216HW,2013-08-23 18:17:00,
2013-08-23 14:22:00,95.0,74.7,30.05,WNW,293,2.7,3.8,52,0.00,,,0.01,WUHU216HW,2013-08-23 18:22:00,
2013-08-23 14:27:00,94.5,74.7,30.05,NW,315,2.0,2.9,53,0.00,,,0.01,WUHU216HW,2013-08-23 18:27:00,
2013-08-23 14:32:00,94.7,75.4,30.04,NNW,338,1.8,2.9,54,0.00,,,0.01,WUHU216HW,2013-08-23 18:32:00,
2013-08-23 14:37:00,94.0,74.2,30.04,West,270,3.4,4.3,53,0.00,,,0.01,WUHU216HW,2013-08-23 18:37:00,
2013-08-23 14:42:00,93.8,75.2,30.04,SW,225,0.9,4.3,55,0.00,,,0.01,WUHU216HW,2013-08-23 18:42:00,
2013-08-23 14:47:00,94.0,74.7,30.03,SW,225,1.1,3.4,54,0.00,,,0.01,WUHU216HW,2013-08-23 18:47:00,
2013-08-23 14:52:00,94.0,74.2,30.03,South,180,3.4,4.0,53,0.00,,,0.01,WUHU216HW,2013-08-23 18:52:00,
2013-08-23 14:57:00,94.0,74.2,30.03,West,270,1.6,4.0,53,0.00,,,0.01,WUHU216HW,2013-08-23 18:57:00,
2013-08-23 15:02:00,93.6,73.3,30.03,NW,315,1.1,4.0,52,0.00,,,0.01,WUHU216HW,2013-08-23 19:02:00,
2013-08-23 15:07:00,92.9,73.2,30.03,SSE,158,0.2,2.0,53,0.00,,,0.01,WUHU216HW,2013-08-23 19:07:00,
2013-08-23 15:12:00,92.9,73.7,30.02,NW,315,3.6,3.6,54,0.00,,,0.01,WUHU216HW,2013-08-23 19:12:00,
2013-08-23 15:17:00,93.6,72.7,30.02,NW,315,4.3,4.3,51,0.00,,,0.01,WUHU216HW,2013-08-23 19:17:00,
2013-08-23 15:22:00,94.7,74.3,30.02,SSE,158,1.8,4.3,52,0.00,,,0.01,WUHU216HW,2013-08-23 19:22:00,
2013-08-23 15:27:00,95.6,74.1,30.02,NW,315,1.6,4.7,50,0.00,,,0.01,WUHU216HW,2013-08-23 19:27:00,
2013-08-23 15:32:00,95.6,74.1,30.02,South,180,1.1,4.7,50,0.00,,,0.01,WUHU216HW,2013-08-23 19:32:00,
2013-08-23 15:37:00,95.0,74.2,30.02,NW,315,1.8,3.4,51,0.00,,,0.01,WUHU216HW,2013-08-23 19:37:00,
2013-08-23 15:42:00,94.7,73.8,30.02,SW,225,0.4,2.5,51,0.00,,,0.01,WUHU216HW,2013-08-23 19:42:00,
2013-08-23 15:47:00,94.3,73.4,30.02,SW,225,1.1,2.5,51,0.00,,,0.01,WUHU216HW,2013-08-23 19:47:00,
2013-08-23 15:52:00,93.2,72.4,30.01,NNE,23,1.3,2.5,51,0.00,,,0.01,WUHU216HW,2013-08-23 19:52:00,
2013-08-23 15:57:00,92.3,72.1,30.02,NNW,338,0.7,2.5,52,0.00,,,0.01,WUHU216HW,2013-08-23 19:57:00,
2013-08-23 16:02:00,91.4,73.4,30.02,SSE,158,1.8,3.8,56,0.00,,,0.01,WUHU216HW,2013-08-23 20:02:00,
2013-08-23 16:07:00,89.6,73.4,30.02,SE,135,3.8,3.8,59,0.00,,,0.01,WUHU216HW,2013-08-23 20:07:00,
2013-08-23 16:12:00,88.2,73.2,30.02,SSW,203,0.7,3.8,61,0.00,,,0.01,WUHU216HW,2013-08-23 20:12:00,
2013-08-23 16:17:00,87.5,72.5,30.02,SE,135,0.4,3.8,61,0.00,,,0.01,WUHU216HW,2013-08-23 20:17:00,
2013-08-23 16:22:00,87.5,72.9,30.02,SE,135,0.4,2.9,62,0.00,,,0.01,WUHU216HW,2013-08-23 20:22:00,
2013-08-23 16:27:00,87.5,73.8,30.03,North,0,2.7,2.7,64,0.00,,,0.01,WUHU216HW,2013-08-23 20:27:00,
2013-08-23 16:32:00,86.4,74.2,30.03,SE,135,1.3,2.9,67,0.08,,,0.09,WUHU216HW,2013-08-23 20:32:00,
2013-08-23 16:37:00,85.3,73.2,30.03,SSW,203,1.6,3.1,67,0.10,,,0.11,WUHU216HW,2013-08-23 20:37:00,
2013-08-23 16:42:00,84.4,73.6,30.04,SW,225,3.6,3.6,70,0.12,,,0.13,WUHU216HW,2013-08-23 20:42:00,
2013-08-23 16:47:00,84.1,73.6,30.03,ESE,113,1.1,3.6,71,0.12,,,0.13,WUHU216HW,2013-08-23 20:47:00,
2013-08-23 16:52:00,84.1,74.1,30.03,SSW,203,0.7,3.6,72,0.12,,,0.13,WUHU216HW,2013-08-23 20:52:00,
2013-08-23 16:57:00,84.2,74.3,30.03,SSE,158,1.3,2.5,72,0.12,,,0.13,WUHU216HW,2013-08-23 20:57:00,
2013-08-23 17:02:00,84.6,75.0,30.03,NE,45,0.9,2.5,73,0.12,,,0.13,WUHU216HW,2013-08-23 21:02:00,
2013-08-23 17:07:00,84.6,74.6,30.03,WSW,248,0.4,2.5,72,0.12,,,0.13,WUHU216HW,2013-08-23 21:07:00,
2013-08-23 17:12:00,84.8,74.8,30.02,SSE,158,1.1,2.5,72,0.12,,,0.13,WUHU216HW,2013-08-23 21:12:00,
2013-08-23 17:17:00,85.1,75.2,30.02,SE,135,1.8,1.8,72,0.12,,,0.13,WUHU216HW,2013-08-23 21:17:00,
2013-08-23 17:22:00,85.3,74.9,30.02,SE,135,0.7,1.8,71,0.12,,,0.13,WUHU216HW,2013-08-23 21:22:00,
2013-08-23 17:27:00,85.3,74.5,30.02,South,180,1.1,1.8,70,0.12,,,0.13,WUHU216HW,2013-08-23 21:27:00,
2013-08-23 17:32:00,85.7,74.9,30.02,South,180,0.7,1.3,70,0.04,,,0.13,WUHU216HW,2013-08-23 21:32:00,
2013-08-23 17:37:00,86.0,75.2,30.02,SSE,158,0.0,1.1,70,0.02,,,0.13,WUHU216HW,2013-08-23 21:37:00,
2013-08-23 17:42:00,86.6,75.2,30.02,SSE,158,0.2,1.1,69,0.00,,,0.13,WUHU216HW,2013-08-23 21:42:00,
2013-08-23 17:47:00,86.8,75.4,30.02,SSE,158,0.7,0.9,69,0.00,,,0.13,WUHU216HW,2013-08-23 21:47:00,
2013-08-23 17:52:00,87.1,75.8,30.03,SSE,158,0.7,1.1,69,0.00,,,0.13,WUHU216HW,2013-08-23 21:52:00,
2013-08-23 17:57:00,87.1,75.8,30.03,SSW,203,1.1,2.2,69,0.00,,,0.13,WUHU216HW,2013-08-23 21:57:00,
2013-08-23 18:02:00,86.8,75.0,30.03,SE,135,0.0,2.9,68,0.00,,,0.13,WUHU216HW,2013-08-23 22:02:00,
2013-08-23 18:07:00,86.6,74.8,30.03,SSE,158,1.3,2.9,68,0.00,,,0.13,WUHU216HW,2013-08-23 22:07:00,
2013-08-23 18:12:00,86.6,74.8,30.03,South,180,0.7,1.3,68,0.00,,,0.13,WUHU216HW,2013-08-23 22:12:00,
2013-08-23 18:17:00,86.4,75.1,30.03,SSE,158,1.1,1.8,69,0.00,,,0.13,WUHU216HW,2013-08-23 22:17:00,
2013-08-23 18:22:00,86.2,75.0,30.03,SE,135,0.2,1.8,69,0.00,,,0.13,WUHU216HW,2013-08-23 22:22:00,
2013-08-23 18:27:00,86.2,75.0,30.03,SE,135,0.4,1.8,69,0.00,,,0.13,WUHU216HW,2013-08-23 22:27:00,
2013-08-23 18:32:00,86.2,74.4,30.03,South,180,1.1,1.3,68,0.00,,,0.13,WUHU216HW,2013-08-23 22:32:00,
2013-08-23 18:37:00,86.0,74.8,30.03,SSE,158,0.7,1.6,69,0.00,,,0.13,WUHU216HW,2013-08-23 22:37:00,
2013-08-23 18:42:00,85.9,74.6,30.03,SSW,203,1.1,1.6,69,0.00,,,0.13,WUHU216HW,2013-08-23 22:42:00,
2013-08-23 18:47:00,85.3,74.1,30.03,SE,135,0.7,1.6,69,0.00,,,0.13,WUHU216HW,2013-08-23 22:47:00,
2013-08-23 18:52:00,85.1,73.9,30.04,SE,135,0.7,1.6,69,0.00,,,0.13,WUHU216HW,2013-08-23 22:52:00,
2013-08-23 18:57:00,85.0,74.2,30.03,SW,225,0.2,1.3,70,0.00,,,0.13,WUHU216HW,2013-08-23 22:57:00,
2013-08-23 19:02:00,85.0,73.7,30.04,NNW,338,0.0,1.3,69,0.00,,,0.13,WUHU216HW,2013-08-23 23:02:00,
2013-08-23 19:07:00,85.0,73.7,30.03,SE,135,0.4,1.1,69,0.00,,,0.13,WUHU216HW,2013-08-23 23:07:00,
2013-08-23 19:12:00,84.6,73.8,30.03,SSE,158,0.0,1.1,70,0.00,,,0.13,WUHU216HW,2013-08-23 23:12:00,
2013-08-23 19:17:00,84.2,73.4,30.04,SSE,158,0.0,0.4,70,0.00,,,0.13,WUHU216HW,2013-08-23 23:17:00,
2013-08-23 19:22:00,84.2,73.4,30.04,SW,225,0.7,1.1,70,0.00,,,0.13,WUHU216HW,2013-08-23 23:22:00,
2013-08-23 19:27:00,83.9,73.4,30.04,West,270,0.0,1.1,71,0.00,,,0.13,WUHU216HW,2013-08-23 23:27:00,
2013-08-23 19:32:00,83.9,73.4,30.05,West,270,0.0,0.7,71,0.00,,,0.13,WUHU216HW,2013-08-23 23:32:00,
2013-08-23 19:37:00,83.3,73.4,30.05,West,270,0.0,0.0,72,0.00,,,0.13,WUHU216HW,2013-08-23 23:37:00,
2013-08-23 19:42:00,83.2,73.2,30.05,West,270,0.0,0.0,72,0.00,,,0.13,WUHU216HW,2013-08-23 23:42:00,
2013-08-23 19:47:00,83.0,73.0,30.05,South,180,0.0,0.0,72,0.00,,,0.13,WUHU216HW,2013-08-23 23:47:00,
2013-08-23 19:51:00,82.6,73.1,30.06,South,180,0.0,0.0,73,0.00,,,0.13,WUHU216HW,2013-08-23 23:51:00,
2013-08-23 19:56:00,82.3,73.2,30.05,WNW,293,0.0,0.4,74,0.00,,,0.13,WUHU216HW,2013-08-23 23:56:00,
2013-08-23 20:01:00,81.7,72.2,30.05,SSW,203,0.0,0.4,73,0.00,,,0.13,WUHU216HW,2013-08-24 00:01:00,
2013-08-23 20:06:00,81.4,72.3,30.05,SSW,203,0.0,0.4,74,0.00,,,0.13,WUHU216HW,2013-08-24 00:06:00,
2013-08-23 20:11:00,81.2,72.6,30.05,SW,225,0.4,0.7,75,0.00,,,0.13,WUHU216HW,2013-08-24 00:11:00,
2013-08-23 20:16:00,80.6,72.0,30.05,South,180,0.0,0.7,75,0.00,,,0.13,WUHU216HW,2013-08-24 00:16:00,
2013-08-23 20:21:00,80.5,71.8,30.06,SE,135,0.0,0.4,75,0.00,,,0.13,WUHU216HW,2013-08-24 00:21:00,
2013-08-23 20:26:00,80.3,71.6,30.05,SE,135,0.0,0.0,75,0.00,,,0.13,WUHU216HW,2013-08-24 00:26:00,
2013-08-23 20:31:00,80.3,71.6,30.05,SE,135,0.0,0.0,75,0.00,,,0.13,WUHU216HW,2013-08-24 00:31:00,
2013-08-23 20:36:00,80.1,71.8,30.06,SE,135,0.0,0.0,76,0.00,,,0.13,WUHU216HW,2013-08-24 00:36:00,
2013-08-23 20:41:00,79.7,71.5,30.06,SE,135,0.0,0.0,76,0.00,,,0.13,WUHU216HW,2013-08-24 00:41:00,
2013-08-23 20:46:00,79.6,71.7,30.06,SE,135,0.0,0.0,77,0.00,,,0.13,WUHU216HW,2013-08-24 00:46:00,
2013-08-23 20:51:00,79.4,71.6,30.06,SSE,158,0.0,0.7,77,0.00,,,0.13,WUHU216HW,2013-08-24 00:51:00,
2013-08-23 20:56:00,79.2,71.4,30.06,ESE,113,0.0,0.7,77,0.00,,,0.13,WUHU216HW,2013-08-24 00:56:00,
2013-08-23 21:01:00,79.0,71.6,30.07,SSE,158,0.2,0.2,78,0.00,,,0.13,WUHU216HW,2013-08-24 01:01:00,
2013-08-23 21:07:00,78.8,71.4,30.07,SW,225,0.0,0.2,78,0.00,,,0.13,WUHU216HW,2013-08-24 01:07:00,
2013-08-23 21:11:00,78.8,71.4,30.07,SW,225,0.0,0.2,78,0.00,,,0.13,WUHU216HW,2013-08-24 01:11:00,
2013-08-23 21:17:00,78.7,71.2,30.08,SW,225,0.0,0.0,78,0.00,,,0.13,WUHU216HW,2013-08-24 01:17:00,
2013-08-23 21:21:00,78.7,71.2,30.07,SW,225,0.4,0.4,78,0.00,,,0.13,WUHU216HW,2013-08-24 01:21:00,
2013-08-23 21:27:00,78.5,71.0,30.07,WNW,293,0.0,0.4,78,0.00,,,0.13,WUHU216HW,2013-08-24 01:27:00,
2013-08-23 21:32:00,78.3,71.3,30.07,SSW,203,0.4,0.7,79,0.00,,,0.13,WUHU216HW,2013-08-24 01:32:00,
2013-08-23 21:37:00,78.1,71.1,30.07,SSW,203,0.9,1.6,79,0.00,,,0.13,WUHU216HW,2013-08-24 01:37:00,
2013-08-23 21:42:00,78.1,71.1,30.08,West,270,0.0,1.6,79,0.00,,,0.13,WUHU216HW,2013-08-24 01:42:00,
2013-08-23 21:47:00,77.9,70.9,30.08,SSW,203,0.7,1.1,79,0.00,,,0.13,WUHU216HW,2013-08-24 01:47:00,
2013-08-23 21:52:00,77.9,70.9,30.08,SW,225,0.4,0.9,79,0.00,,,0.13,WUHU216HW,2013-08-24 01:52:00,
2013-08-23 21:57:00,77.8,71.1,30.07,SW,225,1.1,1.1,80,0.00,,,0.13,WUHU216HW,2013-08-24 01:57:00,
2013-08-23 22:02:00,77.8,71.1,30.08,SW,225,0.0,1.1,80,0.00,,,0.13,WUHU216HW,2013-08-24 02:02:00,
2013-08-23 22:07:00,77.8,71.1,30.07,SW,225,0.4,1.8,80,0.00,,,0.13,WUHU216HW,2013-08-24 02:07:00,
2013-08-23 22:12:00,77.6,71.3,30.07,South,180,1.3,1.8,81,0.00,,,0.13,WUHU216HW,2013-08-24 02:12:00,
2013-08-23 22:17:00,77.6,71.3,30.07,South,180,0.0,1.3,81,0.00,,,0.13,WUHU216HW,2013-08-24 02:17:00,
2013-08-23 22:21:00,77.4,71.1,30.07,SW,225,0.2,0.9,81,0.00,,,0.13,WUHU216HW,2013-08-24 02:21:00,
2013-08-23 22:26:00,77.4,71.1,30.07,SE,135,0.0,0.9,81,0.00,,,0.13,WUHU216HW,2013-08-24 02:26:00,
2013-08-23 22:31:00,77.2,70.9,30.07,SSW,203,0.2,0.4,81,0.00,,,0.13,WUHU216HW,2013-08-24 02:31:00,
2013-08-23 22:36:00,77.0,70.7,30.07,SW,225,1.1,1.1,81,0.00,,,0.13,WUHU216HW,2013-08-24 02:36:00,
2013-08-23 22:41:00,77.0,70.7,30.07,SSE,158,0.0,1.1,81,0.00,,,0.13,WUHU216HW,2013-08-24 02:41:00,
2013-08-23 22:46:00,76.9,70.9,30.06,SSE,158,0.0,1.1,82,0.00,,,0.13,WUHU216HW,2013-08-24 02:46:00,
2013-08-23 22:51:00,76.7,70.7,30.07,SSW,203,0.0,0.7,82,0.00,,,0.13,WUHU216HW,2013-08-24 02:51:00,
2013-08-23 22:56:00,76.7,70.7,30.07,NNW,338,0.7,1.1,82,0.00,,,0.13,WUHU216HW,2013-08-24 02:56:00,
2013-08-23 23:01:00,76.5,70.9,30.07,NNW,338,0.4,1.6,83,0.00,,,0.13,WUHU216HW,2013-08-24 03:01:00,
2013-08-23 23:06:00,76.3,70.8,30.07,NNE,23,0.0,1.6,83,0.00,,,0.13,WUHU216HW,2013-08-24 03:06:00,
2013-08-23 23:11:00,76.3,70.8,30.07,NNE,23,0.0,0.4,83,0.00,,,0.13,WUHU216HW,2013-08-24 03:11:00,
2013-08-23 23:16:00,76.3,70.8,30.07,NNE,23,0.0,0.0,83,0.00,,,0.13,WUHU216HW,2013-08-24 03:16:00,
2013-08-23 23:21:00,76.3,70.8,30.08,NW,315,0.0,0.0,83,0.00,,,0.13,WUHU216HW,2013-08-24 03:21:00,
2013-08-23 23:26:00,76.0,70.5,30.08,SSE,158,0.0,0.4,83,0.00,,,0.13,WUHU216HW,2013-08-24 03:26:00,
2013-08-23 23:31:00,76.0,70.5,30.09,SSE,158,0.0,0.4,83,0.00,,,0.13,WUHU216HW,2013-08-24 03:31:00,
2013-08-23 23:36:00,76.0,70.5,30.09,SSE,158,0.2,1.1,83,0.00,,,0.13,WUHU216HW,2013-08-24 03:36:00,
2013-08-23 23:41:00,76.0,70.5,30.08,South,180,1.3,1.6,83,0.00,,,0.13,WUHU216HW,2013-08-24 03:41:00,
2013-08-23 23:46:00,76.0,70.5,30.09,West,270,0.0,1.6,83,0.00,,,0.13,WUHU216HW,2013-08-24 03:46:00,
2013-08-23 23:51:00,76.0,70.5,30.09,North,0,0.0,1.3,83,0.00,,,0.13,WUHU216HW,2013-08-24 03:51:00,
2013-08-23 23:56:00,76.0,70.5,30.10,North,0,1.1,1.3,83,0.00,,,0.13,WUHU216HW,2013-08-24 03:56:00,